#timestamp,LO_Frequency,Hit,StdDev 
1711101615.4,286047000.2,N
1711101635.2,286047001.6,N
1711101655.0,286047005.5,N
1711101655.9,286047005.5,N
1711101675.8,286047001.6,N
1711101695.6,286046997.9,N
1711101715.4,286046995.1,N
1711101735.3,286046993.9,N
1711101755.1,286046992.7,N
1711101775.9,286046995.8,N
1711101795.7,286046994.3,N
1711101815.5,286046990.2,N
1711101835.4,286046988.9,N
1711101855.2,286046990.4,N
1711101875.0,286046990.2,N
1711101875.9,286046990.2,N
1711101895.8,286046992.8,N
1711101915.6,286046997.0,N
1711101935.5,286046999.6,N
1711101955.3,286046994.8,N
1711101975.1,286046989.7,N
1711101995.9,286046990.6,N
1711102015.7,286046993.6,N
1711102035.5,286046990.7,N
1711102055.4,286046987.5,N
1711102075.2,286046988.2,N
1711102125.1,286046999.5,E
1711102135.0,286046995.2,N
1711102135.9,286046995.2,P
1711102155.8,286046992.7,P
1711102175.6,286046988.9,Y
1711102195.4,286046992.5,P
1711102215.3,286046991.3,P
1711102235.1,286046989.0,P
1711102255.8,286046985.7,Y
1711102275.7,286046992.1,P
1711102295.5,286046990.6,P
1711102315.4,286046990.0,P
1711102335.2,286046990.7,Y
1711102355.0,286046998.2,P
1711102355.9,286046998.2,N
1711102375.8,286046997.5,N
1711102395.6,286046996.1,N
1711102415.4,286046995.4,N
1711102435.3,286047005.8,N
1711102455.1,286047012.0,N
1711102475.9,286047008.6,N
1711102495.7,286047004.6,N
1711102515.5,286047001.5,N
1711102535.4,286046997.6,N
1711102555.2,286046994.0,N
1711102575.0,286046990.7,N
1711102575.9,286046990.7,N
1711102595.8,286046990.5,N
1711102615.6,286046988.6,N
1711102635.5,286046988.8,N
1711102655.3,286046991.9,N
1711102675.1,286046990.5,N
1711102695.9,286046990.9,N
1711102715.7,286046987.7,N
1711102735.5,286046983.0,N
1711102755.4,286046985.1,N
1711102775.2,286046983.7,N
1711102795.1,286046984.4,N
1711102796.0,286046984.4,N
1711102815.8,286046983.8,N
1711102835.6,286046991.0,N
1711102855.5,286046992.8,N
1711102875.3,286046987.5,N
1711102895.1,286046985.2,N
1711102915.9,286046981.6,N
1711102935.7,286046980.1,N
1711102955.6,286046977.6,N
1711102975.4,286046975.2,N
1711102995.2,286046973.7,Y
1711103015.1,286046979.0,P
1711103016.0,286046979.0,P
1711103035.8,286046978.2,P
1711103055.6,286046975.8,Y
1711103075.5,286046995.6,P
1711103095.3,286046996.6,N
1711103115.2,286046994.3,N
1711103135.9,286046992.8,N
1711103155.7,286046989.1,N
1711103175.6,286046990.4,N
1711103195.4,286046988.7,N
1711103215.2,286046988.1,N
1711103235.1,286046992.1,N
1711103236.0,286046992.1,N
1711103255.8,286046999.4,N
1711103275.7,286046998.4,N
1711103295.5,286047002.6,N
1711103315.3,286046999.2,N
1711103335.2,286046999.3,N
1711103355.0,286047001.7,N
1711103355.9,286047001.7,N
1711103375.7,286047003.5,N
1711103395.6,286047001.2,N
1711103415.4,286046993.6,N
1711103435.3,286046995.9,N
1711103455.1,286047000.0,N
1711103456.0,286047000.0,N
1711103475.8,286046999.0,N
1711103495.7,286046995.9,N
1711103515.5,286046996.5,N
1711103535.3,286047001.6,N
1711103555.2,286046999.2,N
1711103575.0,286046991.8,N
1711103575.9,286046991.8,N
1711103595.8,286046985.6,Y
1711103615.6,286046988.3,P
1711103635.4,286046982.7,P
1711103655.3,286046980.2,P
1711103675.1,286046976.5,Y
1711103695.9,286046987.9,P
1711103715.7,286046986.7,P
1711103735.5,286046986.1,P
1711103755.4,286046986.0,Y
1711103775.2,286046997.2,P
1711103795.0,286046993.3,N
1711103796.0,286046993.3,N
1711103815.8,286046990.3,N
1711103835.6,286046988.4,Y
1711103855.5,286046991.9,P
1711103875.3,286046991.3,P
1711103895.1,286046988.8,P
1711103915.9,286046993.2,Y
1711103935.7,286047000.3,P
1711103955.6,286046996.8,N
1711103975.4,286046997.3,N
1711103995.2,286046995.8,N
1711104015.1,286046992.2,N
1711104016.0,286046992.2,N
1711104035.8,286046991.2,N
1711104055.6,286046990.7,N
1711104075.5,286046990.3,N
1711104095.3,286046988.0,Y
1711104115.2,286046991.1,P
1711104135.0,286046986.9,P
1711104135.9,286046986.9,P
1711104155.7,286046987.3,Y
1711104175.6,286046994.9,P
1711104195.4,286046995.4,N
1711104215.3,286046995.5,N
1711104235.1,286046991.7,Y
1711104255.8,286046997.9,P
1711104275.7,286046997.5,N
1711104295.5,286046997.8,N
1711104315.3,286046996.3,N
1711104335.2,286046993.3,Y
1711104355.0,286046997.8,P
1711104355.9,286046997.8,P
1711104375.8,286046995.9,P
1711104395.6,286046991.8,Y
1711104415.4,286046993.9,P
1711104435.3,286046993.6,P
1711104455.1,286046992.4,P
1711104475.9,286046990.5,Y
1711104495.7,286046997.2,P
1711104515.5,286046995.2,P
1711104535.4,286046996.9,N
1711104555.2,286046997.5,N
1711104575.0,286046993.8,Y
1711104576.0,286046993.8,P
1711104595.8,286046999.6,N
1711104615.6,286046993.6,N
1711104635.5,286046992.1,Y
1711104655.3,286047000.5,P
1711104675.1,286046996.7,N
1711104695.9,286046999.0,N
1711104715.7,286046998.4,N
1711104735.5,286046996.0,N
1711104755.4,286046992.0,Y
1711104775.2,286046994.4,P
1711104795.1,286046993.0,P
1711104796.0,286046993.0,P
1711104815.8,286046992.5,Y
1711104835.6,286046998.4,P
1711104855.5,286046999.0,N
1711104875.3,286046995.2,N
1711104895.2,286046996.4,N
1711104915.9,286046997.8,N
1711104935.7,286046995.0,Y
1711104955.6,286046996.9,P
1711104975.4,286046997.4,P
1711104995.2,286046995.1,P
1711105015.1,286046993.6,Y
1711105016.0,286046993.6,P
1711105035.8,286046998.0,N
1711105055.7,286046995.6,N
1711105075.5,286046993.3,Y
1711105095.3,286047002.9,P
1711105115.2,286047000.0,N
1711105135.0,286046999.1,N
1711105135.9,286046999.1,N
1711105155.8,286046998.6,N
1711105175.6,286046997.6,N
1711105195.4,286046998.9,N
